WX2DX-2 Weather Reports


Display with metric or nautical units.
time (UTC)temp
F
wind
direction
speed
MPH
gust
MPH
rain 1hr
in
rain 24hr
in
rain mn
in
humidity
%
barometer
mb
20260509183045 53 206 5.0 9.0 0.00 0.17 0.17 92 1008.6
20260509181532 54 252 4.0 9.0 0.00 0.17 0.17 92 1008.6
20260509180030 54 211 4.0 9.0 0.00 0.17 0.17 92 1008.5
20260509174530 54 185 5.0 9.0 0.01 0.17 0.17 92 1008.4
20260509173029 53 200 3.0 9.0 0.01 0.17 0.17 93 1008.5
20260509171530 54 216 4.0 10.0 0.02 0.17 0.17 93 1008.4
20260509170025 53 221 4.0 10.0 0.03 0.17 0.17 93 1008.3
20260509164522 53 226 4.0 7.0 0.04 0.16 0.16 93 1008.3
20260509163032 52 211 6.0 13.0 0.04 0.16 0.16 93 1008.3
20260509161520 52 186 3.0 7.0 0.04 0.15 0.15 93 1008.3
20260509160018 52 221 2.0 6.0 0.03 0.14 0.14 93 1008.3
20260509154516 52 194 3.0 7.0 0.02 0.12 0.12 92 1008.3
20260509153017 52 202 3.0 7.0 0.02 0.12 0.12 92 1008.6
20260509151508 52 210 2.0 6.0 0.02 0.11 0.11 93 1008.6
20260509150010 52 205 2.0 5.0 0.02 0.11 0.11 93 1008.6
20260509144504 51 208 2.0 6.0 0.02 0.10 0.10 93 1008.7
20260509143001 51 222 0.0 4.0 0.03 0.10 0.10 93 1008.7
20260509141558 51 223 1.0 6.0 0.02 0.09 0.09 93 1008.8
20260509140055 50 189 3.0 7.0 0.03 0.09 0.09 93 1008.9
20260509134554 50 207 1.0 3.0 0.03 0.08 0.08 94 1008.9
20260509133050 49 223 1.0 4.0 0.03 0.07 0.07 93 1008.9
20260509131551 49 281 1.0 4.0 0.03 0.07 0.07 94 1008.9
20260509130058 49 212 0.0 2.0 0.03 0.06 0.06 93 1008.9
20260509124552 49 204 1.0 2.0 0.02 0.05 0.05 93 1009.1
20260509123045 48 205 0.0 1.0 0.01 0.04 0.04 93 1009.1
20260509121545 48 205 0.0 0.0 0.01 0.04 0.04 94 1009.3
20260509120040 48 205 0.0 2.0 0.01 0.03 0.03 93 1009.4
20260509114508 48 212 1.0 3.0 0.01 0.03 0.03 94 1009.5
20260509113005 47 189 0.0 2.0 0.01 0.03 0.03 94 1009.7
20260509111504 47 195 0.0 2.0 0.01 0.03 0.03 94 1009.7
20260509110003 47 196 0.0 2.0 0.01 0.02 0.02 94 1009.8
20260509104508 47 196 0.0 2.0 0.01 0.02 0.02 94 1009.6
20260509103104 47 218 0.0 2.0 0.01 0.02 0.02 94 1009.7
20260509101613 47 228 2.0 3.0 0.01 0.02 0.02 94 1009.7
20260509100056 47 207 1.0 3.0 0.00 0.01 0.01 94 1009.6
20260509094604 47 154 0.0 0.0 0.00 0.01 0.01 93 1009.4
20260509093055 47 154 0.0 0.0 0.00 0.01 0.01 93 1009.3
20260509091601 47 154 0.0 0.0 0.00 0.01 0.01 93 1009.4
20260509090101 47 154 1.0 2.0 0.00 0.01 0.01 93 1009.5
20260509084555 47 132 0.0 1.0 0.00 0.01 0.01 93 1009.4
20260509083058 47 132 0.0 1.0 0.00 0.01 0.01 93 1009.5
20260509081550 47 132 0.0 1.0 0.00 0.01 0.01 93 1009.3
20260509080052 47 132 0.0 1.0 0.00 0.01 0.01 93 1009.5
20260509074552 47 149 0.0 2.0 0.00 0.01 0.01 92 1009.6
20260509073050 47 149 0.0 1.0 0.00 0.01 0.01 92 1009.6
20260509071546 47 150 2.0 3.0 0.01 0.01 0.01 92 1009.6
20260509070043 47 80 0.0 1.0 0.01 0.01 0.01 91 1009.6
20260509064541 47 80 0.0 2.0 0.01 0.01 0.01 91 1010.0
20260509063038 47 80 0.0 1.0 0.01 0.01 0.01 90 1010.4
20260509061537 48 80 0.0 2.0 0.00 0.00 0.00 90 1010.7
20260509060038 48 80 0.0 1.0 0.00 0.00 0.00 90 1011.0
20260509054533 48 80 0.0 2.0 0.00 0.00 0.00 89 1011.0
20260509053046 48 80 0.0 2.0 0.00 0.00 0.00 88 1011.0
20260509051527 49 90 1.0 3.0 0.00 0.00 0.00 86 1011.2
20260509050025 49 130 0.0 3.0 0.00 0.00 0.00 85 1011.8
20260509044523 49 191 1.0 2.0 0.00 0.00 0.00 83 1011.6
20260509043021 49 130 0.0 2.0 0.00 0.00 0.00 84 1011.6
20260509041519 49 198 1.0 2.0 0.00 0.00 0.00 85 1011.5
20260509040026 49 284 0.0 3.0 0.00 0.00 0.00 84 1011.7
20260509034512 49 309 1.0 3.0 0.00 0.00 0.00 86 1011.8
20260509033009 49 303 1.0 3.0 0.00 0.00 0.00 86 1011.9
20260509031509 49 110 0.0 0.0 0.00 0.00 0.00 87 1011.8
20260508230015 56 255 8.0 18.0 0.00 0.02 0.00 65 1010.6
20260508224514 56 250 6.0 16.0 0.00 0.02 0.00 67 1010.4
20260508223034 56 258 7.0 21.0 0.00 0.02 0.00 66 1010.4
20260508221513 56 253 4.0 11.0 0.00 0.02 0.00 69 1010.4
20260508220014 56 293 6.0 11.0 0.00 0.02 0.00 69 1010.6
20260508214512 56 244 6.0 13.0 0.00 0.02 0.00 71 1010.7
20260508213020 54 277 5.0 11.0 0.00 0.02 0.00 74 1010.6
20260508211511 53 299 4.0 9.0 0.00 0.02 0.00 76 1010.4
20260508210013 53 259 5.0 14.0 0.00 0.02 0.00 76 1010.5
20260508204508 52 321 4.0 13.0 0.00 0.02 0.00 77 1010.7
20260508203008 53 257 5.0 15.0 0.00 0.02 0.00 75 1011.2
20260508201507 56 290 6.0 25.0 0.00 0.02 0.00 63 1011.0
20260508200012 59 225 10.0 21.0 0.00 0.02 0.00 52 1010.4
20260508194505 60 261 4.0 15.0 0.00 0.02 0.00 57 1010.3
20260508193005 59 207 5.0 11.0 0.00 0.02 0.00 58 1010.5
20260508191504 59 325 1.0 5.0 0.00 0.02 0.00 57 1010.5
20260508190006 59 351 1.0 3.0 0.00 0.02 0.00 58 1010.5
20260508184503 60 333 2.0 10.0 0.00 0.02 0.00 56 1010.4